Simultaneous Nadir Overpasses (SNOs) Predictions

Prediction of SNOs between GOES-17 and METOP-C Satellite Orbit:

Table of predicted SNOs for the next 14.0 days since TLE Epoch: 2/1/2020
Index Date Time (GOES-17) GOES-17 Lat,Lon METOP-C Lat,Lon Distance(km) Time Diff (sec)
1 02/01/2020 18:48:54 -0.00,-137.21 0.55,-139.69 283.30 80
2 02/02/2020 18:30:43 0.00,-137.20 -0.55,-134.64 290.82 80
3 02/04/2020 06:46:46 0.01,-137.18 -0.42,-139.17 226.89 80
4 02/05/2020 06:28:35 0.00,-137.17 0.68,-134.13 346.64 80
5 02/06/2020 18:44:28 -0.01,-137.15 0.33,-138.61 165.97 80
6 02/07/2020 18:26:18 -0.00,-137.14 -0.82,-133.57 407.10 80
7 02/09/2020 06:42:20 0.01,-137.10 -0.19,-138.09 111.94 80
8 02/10/2020 06:24:08 0.00,-137.08 0.91,-133.04 460.83 80
9 02/11/2020 18:40:02 -0.01,-137.06 0.12,-137.52 53.06 80
10 02/14/2020 06:37:53 0.01,-136.99 -0.01,-136.99 2.25 80




NCC Satellite Simultaneous Nadir Overpasses (SNOs) Prediction Service
